Torna al catalogo

TITAN 3C TRANSTAGE DEB

AttivoLEO
NORAD 1653·DEBRIS·🇺🇸 United States

Lanciato Oct 15, 1965 da Cape Canaveral Space Force Station

Loading…

Prossimi Passaggi (prossime 24 ore)

TLE

AggiornatoSource: Space-Track

Epoca: Sep 14, 2026, 13:16 UTC

1  1653U 65082Q   26257.55325418  .00000281  00000-0  44311-4 0  9999
2  1653  32.1202 354.2993 0040563 145.3058 215.0243 14.64383129224619

Traccia TITAN 3C TRANSTAGE DEB in tempo reale con AllMySat

Download on the App Store